This is the latest recevied weather packets stored in our database for station/object WX9WTF. If no packets are shown the sender has not sent any weather packets the latest 10 day(s).
| Time | Temp. | Humidity | Pressure | Rain* | Wind** | Luminosity | Snow |
|---|---|---|---|---|---|---|---|
| 1777408448 | 13.89° C | 77% | 1014.2 hPa | 0 mm | - | 364 W/m² | - |
| 1777408142 | 13.89° C | 77% | 1014.6 hPa | 0 mm | - | 274 W/m² | - |
| 1777407228 | 13.89° C | 77% | 1015.2 hPa | 0 mm | - | 179 W/m² | - |
| 1777406315 | 13.33° C | 77% | 1016.1 hPa | 0 mm | - | 139 W/m² | - |
| 1777404798 | 13.89° C | 74% | 1015.7 hPa | 0 mm | - | 212 W/m² | - |
| 1777404495 | 13.89° C | 76% | 1015.4 hPa | 0 mm | - | 251 W/m² | - |
| 1777403887 | 13.89° C | 74% | 1015.4 hPa | 0 mm | - | 246 W/m² | - |
| 1777402677 | 13.89° C | 74% | 1015.4 hPa | 0 mm | - | 266 W/m² | - |
| 1777400852 | 13.89° C | 74% | 1015.8 hPa | 0 mm | - | 488 W/m² | - |
| 1777398427 | 13.33° C | 77% | 1016.2 hPa | 0 mm | - | 543 W/m² | - |
| 1777397820 | 13.33° C | 76% | 1016.9 hPa | 0 mm | - | 423 W/m² | - |
| 1777395999 | 12.78° C | 77% | 1016.9 hPa | 0 mm | - | 291 W/m² | - |
| 1777395395 | 12.22° C | 77% | 1017 hPa | 0 mm | - | 277 W/m² | - |
| 1777393878 | 12.78° C | 77% | 1016.7 hPa | 0 mm | - | 393 W/m² | - |
| 1777393577 | 12.22° C | 76% | 1016.8 hPa | 0 mm | - | 819 W/m² | - |
| 1777393272 | 12.78° C | 76% | 1017 hPa | 0 mm | - | 659 W/m² | - |
| 1777392970 | 12.78° C | 75% | 1017.5 hPa | 0 mm | - | 485 W/m² | - |
| 1777392366 | 12.22° C | 78% | 1017.8 hPa | 0 mm | - | 450 W/m² | - |
| 1777391756 | 12.22° C | 76% | 1017.8 hPa | 0 mm | - | 500 W/m² | - |
| 1777390543 | 11.11° C | 79% | 1017.8 hPa | 0 mm | - | 322 W/m² | - |
| 1777390239 | 11.11° C | 80% | 1017.7 hPa | 0 mm | - | 351 W/m² | - |
| 1777389935 | 11.11° C | 79% | 1017.6 hPa | 0 mm | - | 469 W/m² | - |
| 1777389328 | 11.11° C | 79% | 1017.8 hPa | 0 mm | - | 269 W/m² | - |
| 1777389026 | 10.56° C | 79% | 1017.9 hPa | 0 mm | - | 357 W/m² | - |
| 1777388120 | 11.67° C | 79% | 1018.2 hPa | 0 mm | - | 497 W/m² | - |
* Rain latest hour (hover to see other rain measurements)
** Current wind speed in m/s (hover to see current wind gust speed)